Tracking 28081 objects as of 27-Sep-2023
HD Live streaming from Space Station
objects crossing your sky now

SL-6 R/B(2)

Track SL-6 R/B(2) now!


NORAD ID: 19810
Int'l Code: 1989-014D
Perigee: 2,359.0 km
Apogee: 36,846.1 km
Inclination: 64.1 °
Period: 694.3 minutes
Semi major axis: 25973 km
RCS: 8.2817 m2 (large)
Launch date: February 15, 1989
Source: Commonwealth of Independent States (former USSR) (CIS)
Launch site: TYURATAM MISSILE AND SPACE COMPLEX (TTMTR)

Note: This is a ROCKET BODY
Your satellite tracking list
Your tracking list is empty




NASA's NSSDC Master Catalog

Two Line Element Set (TLE):
1 19810U 89014D   23265.20556585 -.00000408  00000-0  00000-0 0  9998
2 19810  64.1302 161.9743 6638873 257.1583  26.3405  2.07398420261879
Source of the keplerian elements: AFSPC